Home   Weather   Leeuwarden   Past weeks
Flag for Netherlands

Past Weather in Leeuwarden, Friesland, Netherlands — Yesterday and Last 2 Weeks

Now
46 °F

Passing clouds.


Feels Like: 41 °F
Forecast: 46 / 35 °F
Wind: 13 mph from West

Location: Leeuwarden Airport

Current Time: Apr 2, 2020 at 10:19:29 pm

Latest Report: Apr 2, 2020 at 9:40 pm


Visibility: N/A

Pressure: 29.77 "Hg

Humidity: 87%

Dew Point: 43 °F

Location of LeeuwardenLocation

Past Weather in Leeuwarden — Graph

°F

Leeuwarden Temperature Yesterday

Maximum temperature yesterday: 46 °F (at 1:33 pm)
Minimum temperature yesterday: 32 °F (at 12:25 am)
Average temperature yesterday: 42 °F

High & Low Weather Summary for the Past Weeks

 TemperatureHumidityPressure
High54 °F (Mar 25, 3:55 pm)100% (Mar 18, 10:34 pm)30.60 "Hg (Mar 18, 10:34 pm)
Low23 °F (Mar 31, 6:25 am)24% (Mar 25, 4:25 pm)29.77 "Hg (Apr 2, 5:25 pm)
Average42 °F68%30.34 "Hg
* Reported Mar 18 8:25 pm — Apr 2 9:02 pm, Leeuwarden. Weather by CustomWeather, © 2020

Note: Actual official high and low records may vary slightly from our data, if they occured in-between our weather recording intervals... More about our weather records

Leeuwarden Weather History for the Previous 24 Hours

Scroll right to see more
 ConditionsComfort  
Time TempWeatherWind HumidityBarometerVisibility
9:02 pm
Thu, Apr 2
46 °FPartly cloudy.17 mph87%29.77 "HgN/A
8:55 pm46 °FPassing clouds.17 mph87%29.77 "HgN/A
8:34 pm46 °FPassing clouds.14 mph87%29.77 "HgN/A
8:08 pm46 °FMore clouds than sun.17 mph87%29.77 "HgN/A
7:55 pm46 °FOvercast.22 mph87%29.77 "HgN/A
7:29 pm46 °FDrizzle. Broken clouds.20 mph87%29.77 "HgN/A
7:17 pm46 °FBroken clouds.18 mph87%29.77 "HgN/A
6:55 pm46 °FMostly cloudy.18 mph82%29.77 "HgN/A
6:25 pm48 °FMostly cloudy.21 mph76%29.77 "HgN/A
5:55 pm48 °FBroken clouds.22 mph76%29.77 "HgN/A
5:25 pm48 °FOvercast.21 mph76%29.77 "HgN/A
4:59 pm48 °FOvercast.22 mph76%29.80 "HgN/A
4:33 pm50 °FBroken clouds.26 mph67%29.80 "HgN/A
4:17 pm50 °FBroken clouds.25 mph67%29.80 "HgN/A
4:01 pm50 °FPartly sunny.25 mph67%29.80 "HgN/A
3:29 pm48 °FPartly sunny.28 mph76%29.80 "HgN/A
2:55 pm50 °FMostly cloudy.23 mph71%29.80 "HgN/A
2:37 pm50 °FPassing clouds.28 mph71%29.80 "HgN/A
1:55 pm50 °FPartly sunny.25 mph71%29.83 "HgN/A
1:25 pm48 °FOvercast.23 mph76%29.83 "HgN/A
1:08 pm48 °FOvercast.20 mph76%29.83 "HgN/A
12:41 pm50 °FBroken clouds.22 mph71%29.86 "HgN/A
12:13 pm50 °FBroken clouds.24 mph71%29.86 "HgN/A
11:55 am50 °FPassing clouds.21 mph67%29.86 "HgN/A
11:40 am50 °FPassing clouds.20 mph67%29.86 "HgN/A
11:27 am50 °FPassing clouds.22 mph71%29.86 "HgN/A
10:59 am48 °FPassing clouds.20 mph76%29.86 "HgN/A
10:29 am48 °FPartly sunny.18 mph76%29.89 "HgN/A
9:58 am46 °FCool.15 mph82%29.89 "HgN/A
9:39 am46 °FPartly sunny.12 mph82%29.89 "HgN/A
9:14 am45 °FQuite cool.10 mph93%29.89 "HgN/A
9:04 am43 °FFog.10 mph93%29.89 "Hg5 mi
8:25 am39 °FFog.9 mph100%29.89 "Hg3 mi
8:10 am39 °FFog.9 mph93%29.92 "Hg2 mi
8:08 am39 °FFog.8 mph93%29.92 "Hg2 mi
7:55 am37 °FFog.9 mph100%29.92 "Hg2 mi
7:25 am36 °FFog.8 mph100%29.92 "Hg2 mi
7:11 am36 °FFog.9 mph100%29.92 "Hg2 mi
6:58 am36 °FFog.9 mph93%29.92 "Hg3 mi
6:55 am36 °FFog.9 mph93%29.92 "Hg3 mi
6:25 am34 °FChilly.8 mph93%29.92 "HgN/A
5:55 am34 °FChilly.8 mph93%29.95 "HgN/A
5:25 am36 °FChilly.6 mph93%29.95 "HgN/A
4:55 am36 °FChilly.5 mph93%29.95 "HgN/A
4:25 am39 °FPassing clouds.6 mph87%29.95 "HgN/A
3:55 am39 °FPassing clouds.6 mph87%29.98 "HgN/A
3:42 am41 °FPassing clouds.6 mph87%29.98 "HgN/A
3:26 am41 °FMostly cloudy.7 mph87%29.98 "HgN/A
3:11 am43 °FMostly cloudy.7 mph81%29.98 "HgN/A
3:07 am43 °FMostly cloudy.7 mph81%29.98 "HgN/A
2:25 am43 °FPassing clouds.7 mph81%29.98 "HgN/A
1:55 am43 °FOvercast.7 mph81%30.01 "HgN/A
1:25 am43 °FOvercast.8 mph81%30.01 "HgN/A
12:55 am43 °FOvercast.8 mph81%30.01 "HgN/A
12:25 am43 °FOvercast.8 mph81%30.01 "HgN/A
11:55 pm
Wed, Apr 1
43 °FOvercast.7 mph81%30.04 "HgN/A
11:25 pm43 °FOvercast.8 mph81%30.04 "HgN/A
11:13 pm43 °FOvercast.7 mph81%30.04 "HgN/A
10:55 pm43 °FOvercast.7 mph81%30.04 "HgN/A
10:43 pm43 °FOvercast.7 mph81%30.04 "HgN/A
Weather by CustomWeather, © 2020

See weather overview

Advertising